Vorticity
29 12 13 14 10 15 4 14 6 5 2 2 1 2 4 3 3 3 3 3 3 2 2 2 2 2 4 3 3 3 4 4
17 41 11 14 14 14 8 11 6 7 7 3 3 3 4 2 3 5 4 3 1 1 2 2 3 3 3 5 4 4 4 4
9 16 59 11 21 15 15 10 9 7 12 1 1 0 3 4 4 4 1 2 2 2 3 3 6 5 5 6 6 6 7 5
8 18 10 54 15 23 10 11 13 18 4 10 1 0 2 4 5 9 6 2 0 2 3 4 6 7 7 7 6 7 8 7
30 21 26 23 35 24 24 15 7 17 14 16 6 3 3 5 10 9 10 11 8 8 6 5 5 6 6 7 8 10 10 8
-2 30 49 33 33 36 31 13 15 17 24 12 6 3 2 7 3 4 3 2 4 6 11 7 6 6 -1 -2 -0 6 5 8
11 37 28 10 11 14 36 9 14 23 15 19 9 8 -1 8 4 -2 -0 0 7 8 8 10 10 15 29 -19 -1 2 9 -7
18 31 23 5 36 27 37 10 22 10 21 12 11 2 2 3 10 -2 4 6 6 9 2 9 19 9 -11 4 6 91 -5 -2
17 15 24 17 18 29 24 19 26 8 7 25 22 -5 1 7 8 -3 8 4 2 8 7 4 6 16 9 7 54 41 8 5
27 25 26 10 14 12 21 26 20 9 20 12 20 3 9 7 14 8 4 9 9 8 12 8 7 -1 6 6 15 12 4 -19
28 30 26 19 20 24 29 28 22 6 5 10 22 8 8 0 1 7 10 11 12 5 14 14 8 7 6 5 -0 -3 3 2
18 29 32 34 36 19 0 3 -3 15 6 6 10 9 8 14 23 17 15 20 24 21 -2 -1 11 12 2 -1 2 6 4 6
21 17 12 19 9 3 -22 34 -28 29 27 26 24 19 12 -1 11 18 1 -6 -2 11 18 13 4 -3 -0 1 0 4 9 11
12 19 15 15 6 0 34 -8 17 -22 -2 1 6 3 4 11 -15 -13 -20 -19 -6 6 4 3 2 1 2 5 8 10 11 11
9 24 19 11 27 19 5 28 38 42 37 17 8 -5 10 28 35 31 30 13 -1 -5 3 8 7 8 10 13 8 9 9 11
9 8 10 18 23 12 16 22 -5 4 5 7 0 11 2 4 8 4 10 10 10 9 7 8 10 11 15 10 8 10 11 11
6 6 9 10 6 27 16 30 16 8 24 3 10 19 21 11 -5 3 11 18 19 15 12 13 12 10 10 9 8 9 10 8
8 9 5 9 10 8 13 12 13 16 19 11 16 14 16 20 20 19 15 15 14 14 15 15 13 14 17 16 11 6 10 8
12 12 12 7 1 7 7 6 9 8 4 3 5 4 5 8 9 10 11 11 11 7 7 15 18 20 22 18 16 13 14 9
Height
3046 3045 3041 3046 3054 3058 3063 3067 3073 3080 3087 3093 3098 3102 3107 3111 3115 3120 3123 3126 3130 3132 3134 3136 3139 3139 3141 3143 3144 3145 3146 3147
3023 3029 3028 3027 3035 3042 3047 3054 3060 3066 3073 3077 3085 3092 3100 3103 3108 3113 3117 3121 3123 3125 3129 3132 3133 3135 3136 3137 3139 3140 3141 3142
3010 3007 3013 3008 3015 3024 3030 3039 3046 3053 3061 3070 3078 3088 3093 3097 3101 3106 3109 3112 3116 3119 3123 3125 3127 3128 3129 3131 3132 3134 3135 3137
2998 2994 2991 2995 2993 3006 3013 3022 3030 3039 3050 3059 3069 3077 3082 3086 3092 3097 3100 3105 3109 3113 3115 3117 3119 3121 3122 3124 3126 3127 3130 3132
2980 2977 2975 2977 2976 2986 2998 3005 3015 3026 3036 3046 3056 3063 3071 3079 3087 3090 3093 3097 3101 3105 3108 3109 3112 3114 3115 3116 3118 3120 3122 3124
2969 2964 2961 2965 2964 2971 2980 2991 3002 3014 3023 3035 3046 3056 3065 3073 3077 3080 3086 3091 3094 3097 3100 3101 3103 3103 3105 3109 3109 3109 3112 3116
2963 2956 2953 2952 2952 2958 2966 2979 2992 3003 3013 3023 3035 3046 3055 3059 3067 3074 3079 3083 3086 3089 3093 3094 3094 3095 3093 3096 3104 3104 3104 3105
2958 2952 2948 2947 2946 2952 2958 2970 2981 2993 3004 3013 3025 3036 3043 3051 3059 3065 3071 3075 3079 3082 3085 3086 3086 3086 3076 3092 3092 3094 3095 3098
2956 2951 2949 2946 2946 2951 2958 2965 2976 2987 2997 3007 3019 3026 3032 3041 3051 3057 3063 3068 3073 3075 3076 3078 3080 3082 3085 3083 3080 3083 3088 3091
2957 2953 2950 2948 2949 2951 2957 2964 2972 2982 2991 3000 3007 3018 3019 3030 3044 3051 3057 3060 3064 3068 3069 3072 3074 3074 3073 3075 3075 3079 3079 3081
2959 2952 2952 2949 2950 2952 2958 2964 2972 2982 2987 2997 2998 3007 3017 3029 3037 3042 3048 3052 3055 3059 3061 3063 3065 3067 3068 3068 3069 3072 3072 3073
2965 2954 2948 2951 2953 2955 2960 2968 2974 2982 2988 2993 2992 3008 3016 3022 3028 3034 3038 3044 3047 3050 3052 3054 3057 3058 3059 3059 3060 3062 3062 3063
2973 2963 2957 2951 2956 2959 2964 2969 2973 2981 2985 2990 2998 3005 3010 3016 3021 3026 3030 3034 3039 3043 3044 3046 3047 3049 3050 3049 3050 3050 3050 3050
2977 2970 2965 2964 2964 2965 2969 2973 2977 2981 2986 2989 2998 3001 3006 3012 3016 3019 3022 3027 3031 3035 3036 3037 3038 3037 3038 3038 3037 3037 3036 3037
2982 2977 2972 2970 2968 2968 2970 2975 2977 2978 2984 2990 2996 3000 3003 3007 3010 3012 3015 3019 3024 3025 3024 3025 3026 3026 3025 3024 3024 3023 3022 3023
2990 2985 2980 2977 2975 2974 2973 2975 2974 2979 2983 2988 2991 2996 3000 3002 3004 3007 3011 3012 3014 3014 3014 3014 3013 3012 3012 3012 3011 3010 3009 3009
2996 2992 2988 2985 2982 2980 2978 2978 2979 2979 2981 2986 2989 2993 2995 2997 3000 3001 3001 3002 3001 3001 3000 3000 2999 2997 2997 2998 2997 2997 2996 2997
3001 2997 2993 2990 2988 2986 2984 2985 2987 2988 2988 2993 2990 2990 2993 2991 2991 2993 2992 2992 2991 2988 2986 2984 2983 2983 2984 2983 2982 2981 2983 2984
3004 3000 2997 2993 2990 2990 2990 2989 2990 2990 2989 2987 2986 2986 2986 2987 2987 2986 2987 2984 2981 2980 2978 2974 2970 2968 2966 2967 2968 2969 2970 2972